Time,TemperatureF,DewpointF,PressureIn,WindDirection,WindDirectionDegrees,WindSpeedMPH,WindSpeedGustMPH,Humidity,HourlyPrecipIn,Conditions,Clouds,dailyrainin,SoftwareType,DateUTC
2013-08-08 00:02:00,58.6,50.4,30.25,East,90,1.6,1.6,74,0.00,,,0.00,meteobridge,2013-08-08 06:02:00,
2013-08-08 00:08:00,58.8,50.5,30.25,East,90,0.7,2.2,74,0.00,,,0.00,meteobridge,2013-08-08 06:08:00,
2013-08-08 00:14:00,58.6,50.4,30.25,NE,45,0.0,1.6,74,0.00,,,0.00,meteobridge,2013-08-08 06:14:00,
2013-08-08 00:21:00,58.3,50.0,30.25,North,0,0.0,1.6,74,0.00,,,0.00,meteobridge,2013-08-08 06:21:00,
2013-08-08 00:27:00,57.9,50.0,30.24,SE,135,0.0,0.7,75,0.00,,,0.00,meteobridge,2013-08-08 06:27:00,
2013-08-08 00:33:00,57.9,50.0,30.24,NE,45,0.0,0.0,75,0.00,,,0.00,meteobridge,2013-08-08 06:33:00,
2013-08-08 00:40:00,57.7,49.8,30.24,North,0,0.7,1.6,75,0.00,,,0.00,meteobridge,2013-08-08 06:40:00,
2013-08-08 00:46:00,58.1,49.8,30.24,East,90,0.0,0.7,74,0.00,,,0.00,meteobridge,2013-08-08 06:46:00,
2013-08-08 00:52:00,57.9,49.6,30.23,NE,45,2.2,2.2,74,0.00,,,0.00,meteobridge,2013-08-08 06:52:00,
2013-08-08 00:59:00,57.9,49.6,30.23,North,0,1.6,2.2,74,0.00,,,0.00,meteobridge,2013-08-08 06:59:00,
2013-08-08 01:05:00,57.9,49.6,30.23,NE,45,1.6,1.6,74,0.00,,,0.00,meteobridge,2013-08-08 07:05:00,
2013-08-08 01:11:00,57.0,49.1,30.23,SE,135,0.7,0.7,75,0.00,,,0.00,meteobridge,2013-08-08 07:11:00,
2013-08-08 01:18:00,57.2,49.3,30.23,North,0,0.0,0.0,75,0.00,,,0.00,meteobridge,2013-08-08 07:18:00,
2013-08-08 01:24:00,57.4,49.1,30.23,North,0,0.0,0.0,74,0.00,,,0.00,meteobridge,2013-08-08 07:24:00,
2013-08-08 01:30:00,57.2,48.9,30.23,East,90,0.7,0.7,74,0.00,,,0.00,meteobridge,2013-08-08 07:30:00,
2013-08-08 01:37:00,56.7,48.7,30.22,East,90,1.6,1.6,75,0.00,,,0.00,meteobridge,2013-08-08 07:37:00,
2013-08-08 01:43:00,56.5,48.7,30.22,North,0,1.6,2.2,75,0.00,,,0.00,meteobridge,2013-08-08 07:43:00,
2013-08-08 01:50:00,56.3,48.6,30.22,East,90,2.2,2.2,75,0.00,,,0.00,meteobridge,2013-08-08 07:50:00,
2013-08-08 01:56:00,57.0,48.0,30.21,SE,135,2.2,2.2,72,0.00,,,0.00,meteobridge,2013-08-08 07:56:00,
2013-08-08 02:02:00,57.0,47.7,30.21,East,90,0.0,0.7,71,0.00,,,0.00,meteobridge,2013-08-08 08:02:00,
2013-08-08 02:09:00,56.5,47.5,30.21,East,90,1.6,2.2,72,0.00,,,0.00,meteobridge,2013-08-08 08:09:00,
2013-08-08 02:15:00,56.8,47.8,30.20,SE,135,3.1,3.1,72,0.00,,,0.00,meteobridge,2013-08-08 08:15:00,
2013-08-08 02:21:00,57.0,47.7,30.20,East,90,1.6,1.6,71,0.00,,,0.00,meteobridge,2013-08-08 08:21:00,
2013-08-08 02:28:00,57.2,47.5,30.20,East,90,0.0,0.7,70,0.00,,,0.00,meteobridge,2013-08-08 08:28:00,
2013-08-08 02:34:00,55.9,46.8,30.20,East,90,3.1,3.8,71,0.00,,,0.00,meteobridge,2013-08-08 08:34:00,
2013-08-08 02:42:00,56.3,46.9,30.20,East,90,1.6,1.6,71,0.00,,,0.00,meteobridge,2013-08-08 08:42:00,
2013-08-08 02:49:00,55.8,46.6,30.19,NE,45,1.6,2.2,71,0.00,,,0.00,meteobridge,2013-08-08 08:49:00,
2013-08-08 02:55:00,55.9,46.2,30.20,SE,135,0.0,0.0,70,0.00,,,0.00,meteobridge,2013-08-08 08:55:00,
2013-08-08 03:01:00,56.1,46.0,30.19,East,90,1.6,1.6,69,0.00,,,0.00,meteobridge,2013-08-08 09:01:00,
2013-08-08 03:08:00,55.6,45.5,30.19,East,90,0.7,1.6,69,0.00,,,0.00,meteobridge,2013-08-08 09:08:00,
2013-08-08 03:14:00,55.9,45.9,30.19,North,0,0.7,1.6,69,0.00,,,0.00,meteobridge,2013-08-08 09:14:00,
2013-08-08 03:20:00,55.8,45.7,30.19,NE,45,0.0,0.7,69,0.00,,,0.00,meteobridge,2013-08-08 09:20:00,
2013-08-08 03:27:00,55.4,45.3,30.19,East,90,2.2,2.2,69,0.00,,,0.00,meteobridge,2013-08-08 09:27:00,
2013-08-08 03:33:00,55.2,45.7,30.19,NE,45,0.0,1.6,70,0.00,,,0.00,meteobridge,2013-08-08 09:33:00,
2013-08-08 03:39:00,55.4,45.3,30.19,East,90,0.0,0.0,69,0.00,,,0.00,meteobridge,2013-08-08 09:39:00,
2013-08-08 03:46:00,55.0,45.9,30.19,South,180,1.6,1.6,71,0.00,,,0.00,meteobridge,2013-08-08 09:46:00,
2013-08-08 03:52:00,55.4,45.3,30.19,NE,45,1.6,1.6,69,0.00,,,0.00,meteobridge,2013-08-08 09:52:00,
2013-08-08 03:58:00,55.6,45.1,30.19,North,0,0.0,0.7,68,0.00,,,0.00,meteobridge,2013-08-08 09:58:00,
2013-08-08 04:05:00,55.2,46.0,30.19,East,90,0.0,0.7,71,0.00,,,0.00,meteobridge,2013-08-08 10:05:00,
2013-08-08 04:11:00,55.0,45.9,30.19,East,90,0.0,0.0,71,0.00,,,0.00,meteobridge,2013-08-08 10:11:00,
2013-08-08 04:18:00,54.9,45.7,30.19,East,90,0.0,0.0,71,0.00,,,0.00,meteobridge,2013-08-08 10:18:00,
2013-08-08 04:24:00,54.7,45.9,30.19,East,90,0.7,0.7,72,0.00,,,0.00,meteobridge,2013-08-08 10:24:00,
2013-08-08 04:30:00,54.5,46.0,30.19,East,90,0.7,0.7,73,0.00,,,0.00,meteobridge,2013-08-08 10:30:00,
2013-08-08 04:37:00,54.7,45.9,30.19,North,0,0.0,0.7,72,0.00,,,0.00,meteobridge,2013-08-08 10:37:00,
2013-08-08 04:43:00,54.9,46.0,30.19,NE,45,0.0,0.0,72,0.00,,,0.00,meteobridge,2013-08-08 10:43:00,
2013-08-08 04:49:00,54.7,45.5,30.19,East,90,1.6,1.6,71,0.00,,,0.00,meteobridge,2013-08-08 10:49:00,
2013-08-08 04:56:00,54.7,45.9,30.19,South,180,0.7,1.6,72,0.00,,,0.00,meteobridge,2013-08-08 10:56:00,
2013-08-08 05:02:00,54.7,45.9,30.19,NE,45,0.0,0.7,72,0.00,,,0.00,meteobridge,2013-08-08 11:02:00,
2013-08-08 05:08:00,55.2,46.8,30.19,North,0,0.0,1.6,73,0.00,,,0.00,meteobridge,2013-08-08 11:08:00,
2013-08-08 05:15:00,55.0,46.6,30.19,SE,135,1.6,1.6,73,0.00,,,0.00,meteobridge,2013-08-08 11:15:00,
2013-08-08 05:21:00,54.7,46.6,30.20,NE,45,0.0,0.0,74,0.00,,,0.00,meteobridge,2013-08-08 11:21:00,
2013-08-08 05:27:00,55.0,46.9,30.20,NE,45,0.0,0.0,74,0.00,,,0.00,meteobridge,2013-08-08 11:27:00,
2013-08-08 05:34:00,55.4,47.7,30.20,NE,45,0.0,0.7,75,0.00,,,0.00,meteobridge,2013-08-08 11:34:00,
2013-08-08 05:40:00,55.4,47.7,30.20,North,0,0.7,0.7,75,0.00,,,0.00,meteobridge,2013-08-08 11:40:00,
2013-08-08 05:46:00,55.8,48.0,30.20,North,0,0.0,0.7,75,0.00,,,0.00,meteobridge,2013-08-08 11:46:00,
2013-08-08 05:53:00,55.8,47.7,30.21,East,90,0.0,0.0,74,0.00,,,0.00,meteobridge,2013-08-08 11:53:00,
2013-08-08 05:59:00,55.8,48.0,30.20,NE,45,0.7,1.6,75,0.00,,,0.00,meteobridge,2013-08-08 11:59:00,
2013-08-08 06:07:00,55.9,48.2,30.20,North,0,0.7,0.7,75,0.00,,,0.00,meteobridge,2013-08-08 12:07:00,
2013-08-08 06:14:00,56.3,48.6,30.21,NE,45,1.6,2.2,75,0.00,,,0.00,meteobridge,2013-08-08 12:14:00,
2013-08-08 06:20:00,57.0,48.4,30.21,North,0,0.0,2.2,73,0.00,,,0.00,meteobridge,2013-08-08 12:20:00,
2013-08-08 06:27:00,57.6,48.2,30.21,NE,45,0.7,0.7,71,0.00,,,0.00,meteobridge,2013-08-08 12:27:00,
2013-08-08 06:33:00,58.1,48.4,30.21,SE,135,1.6,1.6,70,0.00,,,0.00,meteobridge,2013-08-08 12:33:00,
2013-08-08 06:39:00,59.0,49.6,30.21,East,90,0.7,0.7,71,0.00,,,0.00,meteobridge,2013-08-08 12:39:00,
2013-08-08 06:46:00,59.7,50.4,30.21,SE,135,0.0,0.0,71,0.00,,,0.00,meteobridge,2013-08-08 12:46:00,
2013-08-08 06:52:00,60.3,50.0,30.21,North,0,0.0,0.0,69,0.00,,,0.00,meteobridge,2013-08-08 12:52:00,
2013-08-08 06:58:00,59.5,49.8,30.22,South,180,0.0,1.6,70,0.00,,,0.00,meteobridge,2013-08-08 12:58:00,
2013-08-08 07:07:00,62.2,52.0,30.21,South,180,0.0,0.0,69,0.00,,,0.00,meteobridge,2013-08-08 13:07:00,
2013-08-08 07:13:00,66.2,53.6,30.22,East,90,0.0,0.0,64,0.00,,,0.00,meteobridge,2013-08-08 13:13:00,
2013-08-08 07:19:00,67.3,53.8,30.22,South,180,0.0,0.0,62,0.00,,,0.00,meteobridge,2013-08-08 13:19:00,
2013-08-08 07:26:00,65.7,52.3,30.22,East,90,2.2,2.2,62,0.00,,,0.00,meteobridge,2013-08-08 13:26:00,
2013-08-08 07:32:00,66.7,52.9,30.22,SW,225,2.2,4.5,61,0.00,,,0.00,meteobridge,2013-08-08 13:32:00,
2013-08-08 07:38:00,66.7,52.3,30.22,South,180,0.0,2.2,60,0.00,,,0.00,meteobridge,2013-08-08 13:38:00,
2013-08-08 07:45:00,68.0,52.7,30.22,East,90,0.0,3.8,58,0.00,,,0.00,meteobridge,2013-08-08 13:45:00,
2013-08-08 07:51:00,67.8,52.9,30.23,South,180,2.2,3.1,59,0.00,,,0.00,meteobridge,2013-08-08 13:51:00,
2013-08-08 07:57:00,66.6,52.2,30.23,West,270,3.1,3.8,60,0.00,,,0.00,meteobridge,2013-08-08 13:57:00,
2013-08-08 08:04:00,65.3,52.9,30.24,SE,135,2.2,3.1,64,0.00,,,0.00,meteobridge,2013-08-08 14:04:00,
2013-08-08 08:10:00,65.5,53.4,30.24,South,180,0.0,1.6,65,0.00,,,0.00,meteobridge,2013-08-08 14:10:00,
2013-08-08 08:16:00,66.2,54.1,30.24,West,270,3.1,3.1,65,0.00,,,0.00,meteobridge,2013-08-08 14:16:00,
2013-08-08 08:23:00,64.8,53.1,30.24,West,270,0.0,2.2,66,0.00,,,0.00,meteobridge,2013-08-08 14:23:00,
2013-08-08 08:29:00,65.3,54.1,30.24,South,180,3.1,3.1,67,0.00,,,0.00,meteobridge,2013-08-08 14:29:00,
2013-08-08 08:36:00,67.3,55.6,30.24,South,180,0.0,1.6,66,0.00,,,0.00,meteobridge,2013-08-08 14:36:00,
2013-08-08 08:42:00,67.6,55.4,30.24,North,0,0.0,1.6,65,0.00,,,0.00,meteobridge,2013-08-08 14:42:00,
2013-08-08 08:48:00,67.3,55.0,30.24,North,0,1.6,1.6,65,0.00,,,0.00,meteobridge,2013-08-08 14:48:00,
2013-08-08 08:55:00,69.4,56.3,30.24,North,0,0.0,0.0,63,0.00,,,0.00,meteobridge,2013-08-08 14:55:00,
2013-08-08 09:01:00,68.4,53.4,30.24,NW,315,3.8,3.8,59,0.00,,,0.00,meteobridge,2013-08-08 15:01:00,
2013-08-08 09:07:00,70.0,55.4,30.24,NE,45,1.6,1.6,60,0.00,,,0.00,meteobridge,2013-08-08 15:07:00,
2013-08-08 09:14:00,71.1,55.0,30.24,East,90,1.6,2.2,57,0.00,,,0.00,meteobridge,2013-08-08 15:14:00,
2013-08-08 09:20:00,70.5,55.0,30.24,West,270,1.6,2.2,58,0.00,,,0.00,meteobridge,2013-08-08 15:20:00,
2013-08-08 09:26:00,69.8,54.9,30.25,NW,315,0.7,3.1,59,0.00,,,0.00,meteobridge,2013-08-08 15:26:00,
2013-08-08 09:33:00,70.9,55.4,30.25,South,180,0.0,1.6,58,0.00,,,0.00,meteobridge,2013-08-08 15:33:00,
2013-08-08 09:39:00,71.4,55.4,30.25,West,270,0.0,0.7,57,0.00,,,0.00,meteobridge,2013-08-08 15:39:00,
2013-08-08 09:45:00,72.0,55.4,30.25,NE,45,0.0,0.0,56,0.00,,,0.00,meteobridge,2013-08-08 15:45:00,
2013-08-08 09:52:00,71.6,55.0,30.26,South,180,1.6,1.6,56,0.00,,,0.00,meteobridge,2013-08-08 15:52:00,
2013-08-08 09:58:00,70.2,55.6,30.26,West,270,1.6,6.0,60,0.00,,,0.00,meteobridge,2013-08-08 15:58:00,
2013-08-08 10:04:00,70.2,56.1,30.26,SE,135,4.5,4.5,61,0.00,,,0.00,meteobridge,2013-08-08 16:04:00,
2013-08-08 10:11:00,71.4,56.8,30.26,South,180,9.2,9.2,60,0.00,,,0.00,meteobridge,2013-08-08 16:11:00,
2013-08-08 10:17:00,70.9,56.8,30.25,SE,135,4.5,5.4,61,0.00,,,0.00,meteobridge,2013-08-08 16:17:00,
2013-08-08 10:23:00,72.5,57.4,30.25,South,180,7.6,7.6,59,0.00,,,0.00,meteobridge,2013-08-08 16:23:00,
2013-08-08 10:30:00,73.0,57.4,30.25,SW,225,9.2,9.2,58,0.00,,,0.00,meteobridge,2013-08-08 16:30:00,
2013-08-08 10:36:00,77.0,58.6,30.25,East,90,5.4,5.4,53,0.00,,,0.00,meteobridge,2013-08-08 16:36:00,
2013-08-08 10:42:00,74.1,57.4,30.25,South,180,6.0,8.3,56,0.00,,,0.00,meteobridge,2013-08-08 16:42:00,
2013-08-08 10:49:00,75.9,58.6,30.25,SE,135,4.5,4.5,55,0.00,,,0.00,meteobridge,2013-08-08 16:49:00,
2013-08-08 10:57:00,73.4,56.7,30.25,North,0,5.4,8.3,56,0.00,,,0.00,meteobridge,2013-08-08 16:57:00,
2013-08-08 11:04:00,74.8,58.6,30.25,West,270,0.7,4.5,57,0.00,,,0.00,meteobridge,2013-08-08 17:04:00,
2013-08-08 11:10:00,74.1,56.8,30.24,North,0,2.2,4.5,55,0.00,,,0.00,meteobridge,2013-08-08 17:10:00,
2013-08-08 11:18:00,73.6,57.4,30.25,NW,315,3.1,4.5,57,0.00,,,0.00,meteobridge,2013-08-08 17:18:00,
2013-08-08 11:25:00,74.3,58.6,30.24,SW,225,3.1,3.1,58,0.00,,,0.00,meteobridge,2013-08-08 17:25:00,
2013-08-08 11:31:00,73.2,58.1,30.24,South,180,0.0,1.6,59,0.00,,,0.00,meteobridge,2013-08-08 17:31:00,
2013-08-08 11:37:00,73.6,57.9,30.23,North,0,1.6,2.2,58,0.00,,,0.00,meteobridge,2013-08-08 17:37:00,
2013-08-08 11:44:00,72.9,57.7,30.23,North,0,4.5,4.5,59,0.00,,,0.00,meteobridge,2013-08-08 17:44:00,
2013-08-08 11:50:00,72.0,55.4,30.23,SW,225,7.6,7.6,56,0.00,,,0.00,meteobridge,2013-08-08 17:50:00,
2013-08-08 11:56:00,72.0,55.4,30.22,SW,225,2.2,4.5,56,0.00,,,0.00,meteobridge,2013-08-08 17:56:00,
2013-08-08 12:05:00,73.4,57.7,30.22,NE,45,4.5,4.5,58,0.00,,,0.00,meteobridge,2013-08-08 18:05:00,
2013-08-08 12:11:00,72.0,57.4,30.22,South,180,3.8,4.5,60,0.00,,,0.00,meteobridge,2013-08-08 18:11:00,
2013-08-08 12:18:00,71.6,57.4,30.23,West,270,3.1,3.8,61,0.00,,,0.00,meteobridge,2013-08-08 18:18:00,
2013-08-08 12:24:00,73.0,58.8,30.23,NE,45,1.6,3.1,61,0.00,,,0.00,meteobridge,2013-08-08 18:24:00,
2013-08-08 12:30:00,73.0,58.8,30.23,NE,45,3.8,5.4,61,0.00,,,0.00,meteobridge,2013-08-08 18:30:00,
2013-08-08 12:37:00,75.6,59.2,30.23,North,0,6.0,6.0,57,0.00,,,0.00,meteobridge,2013-08-08 18:37:00,
2013-08-08 12:43:00,71.2,57.9,30.22,West,270,6.0,6.0,63,0.00,,,0.00,meteobridge,2013-08-08 18:43:00,
2013-08-08 12:49:00,73.4,58.6,30.22,East,90,2.2,3.1,60,0.00,,,0.00,meteobridge,2013-08-08 18:49:00,
2013-08-08 12:56:00,73.2,58.5,30.22,North,0,0.7,1.6,60,0.00,,,0.00,meteobridge,2013-08-08 18:56:00,
2013-08-08 13:02:00,72.3,57.7,30.22,NE,45,3.8,5.4,60,0.00,,,0.00,meteobridge,2013-08-08 19:02:00,
2013-08-08 13:08:00,72.5,58.3,30.22,NE,45,3.1,6.0,61,0.00,,,0.00,meteobridge,2013-08-08 19:08:00,
2013-08-08 13:15:00,71.8,57.6,30.21,East,90,3.1,4.5,61,0.00,,,0.00,meteobridge,2013-08-08 19:15:00,
2013-08-08 16:48:00,66.2,58.1,30.20,SW,225,4.5,4.5,75,0.00,,,0.06,meteobridge,2013-08-08 22:48:00,
2013-08-08 16:55:00,65.7,57.9,30.21,South,180,0.7,3.1,76,0.00,,,0.06,meteobridge,2013-08-08 22:55:00,
2013-08-08 17:01:00,65.7,57.9,30.21,SW,225,3.8,3.8,76,0.00,,,0.06,meteobridge,2013-08-08 23:01:00,
2013-08-08 17:07:00,65.7,57.9,30.21,South,180,3.1,4.5,76,0.00,,,0.06,meteobridge,2013-08-08 23:07:00,
2013-08-08 17:14:00,65.5,57.7,30.21,South,180,0.7,2.2,76,0.00,,,0.06,meteobridge,2013-08-08 23:14:00,
2013-08-08 17:20:00,65.3,57.9,30.21,South,180,3.1,3.1,77,0.00,,,0.06,meteobridge,2013-08-08 23:20:00,
2013-08-08 17:26:00,65.3,57.9,30.21,South,180,0.0,2.2,77,0.00,,,0.06,meteobridge,2013-08-08 23:26:00,
2013-08-08 17:33:00,65.1,57.7,30.21,South,180,3.1,3.1,77,0.00,,,0.06,meteobridge,2013-08-08 23:33:00,
2013-08-08 17:39:00,64.8,57.4,30.22,East,90,1.6,1.6,77,0.00,,,0.06,meteobridge,2013-08-08 23:39:00,
2013-08-08 17:45:00,64.8,57.7,30.22,South,180,0.0,0.0,78,0.00,,,0.06,meteobridge,2013-08-08 23:45:00,
2013-08-08 17:52:00,64.6,57.6,30.22,SE,135,1.6,1.6,78,0.00,,,0.06,meteobridge,2013-08-08 23:52:00,
2013-08-08 17:58:00,64.4,57.4,30.21,South,180,2.2,2.2,78,0.00,,,0.06,meteobridge,2013-08-08 23:58:00,
2013-08-08 18:04:00,64.2,57.6,30.21,East,90,0.0,0.7,79,0.00,,,0.06,meteobridge,2013-08-09 00:04:00,
2013-08-08 18:15:00,63.9,57.6,30.22,South,180,2.2,2.2,80,0.00,,,0.06,meteobridge,2013-08-09 00:15:00,
2013-08-08 18:21:00,63.9,57.6,30.22,South,180,0.7,0.7,80,0.00,,,0.06,meteobridge,2013-08-09 00:21:00,
2013-08-08 18:28:00,63.7,57.4,30.22,SE,135,3.1,3.8,80,0.00,,,0.06,meteobridge,2013-08-09 00:28:00,
2013-08-08 18:34:00,63.5,57.2,30.22,South,180,2.2,2.2,80,0.00,,,0.06,meteobridge,2013-08-09 00:34:00,
2013-08-08 18:40:00,63.5,57.2,30.23,NW,315,3.8,3.8,80,0.00,,,0.06,meteobridge,2013-08-09 00:40:00,
2013-08-08 18:47:00,63.3,57.0,30.23,SE,135,3.1,6.0,80,0.00,,,0.06,meteobridge,2013-08-09 00:47:00,
2013-08-08 18:53:00,63.1,56.8,30.23,SW,225,3.1,3.8,80,0.00,,,0.06,meteobridge,2013-08-09 00:53:00,
2013-08-08 19:01:00,63.1,56.8,30.23,East,90,3.1,3.1,80,0.00,,,0.06,meteobridge,2013-08-09 01:01:00,
2013-08-08 19:08:00,63.1,56.8,30.23,SE,135,2.2,2.2,80,0.00,,,0.06,meteobridge,2013-08-09 01:08:00,
2013-08-08 19:14:00,63.0,56.7,30.24,East,90,5.4,5.4,80,0.00,,,0.06,meteobridge,2013-08-09 01:14:00,
2013-08-08 19:20:00,63.0,56.7,30.24,North,0,0.0,1.6,80,0.00,,,0.06,meteobridge,2013-08-09 01:20:00,
2013-08-08 19:27:00,63.0,56.7,30.24,SE,135,1.6,4.5,80,0.00,,,0.06,meteobridge,2013-08-09 01:27:00,
2013-08-08 19:33:00,62.8,56.5,30.24,South,180,3.1,3.1,80,0.00,,,0.06,meteobridge,2013-08-09 01:33:00,
2013-08-08 19:40:00,62.4,56.5,30.24,South,180,0.0,0.0,81,0.00,,,0.06,meteobridge,2013-08-09 01:40:00,
2013-08-08 19:46:00,62.4,56.5,30.24,SE,135,0.0,3.8,81,0.00,,,0.06,meteobridge,2013-08-09 01:46:00,
2013-08-08 19:52:00,62.2,56.7,30.24,SE,135,0.0,0.0,82,0.00,,,0.06,meteobridge,2013-08-09 01:52:00,
2013-08-08 19:59:00,62.4,56.8,30.24,East,90,0.0,0.0,82,0.00,,,0.06,meteobridge,2013-08-09 01:59:00,
2013-08-08 20:07:00,62.2,56.7,30.24,North,0,0.0,0.0,82,0.00,,,0.06,meteobridge,2013-08-09 02:07:00,
2013-08-08 20:13:00,61.7,56.1,30.25,East,90,0.0,0.0,82,0.00,,,0.06,meteobridge,2013-08-09 02:13:00,
2013-08-08 20:20:00,61.5,55.9,30.25,South,180,0.0,0.7,82,0.00,,,0.06,meteobridge,2013-08-09 02:20:00,
2013-08-08 20:26:00,61.5,56.3,30.25,North,0,0.0,0.0,83,0.00,,,0.06,meteobridge,2013-08-09 02:26:00,
2013-08-08 20:32:00,61.9,56.7,30.25,North,0,0.0,0.0,83,0.00,,,0.06,meteobridge,2013-08-09 02:32:00,
2013-08-08 20:39:00,62.2,57.0,30.25,East,90,0.0,0.0,83,0.00,,,0.06,meteobridge,2013-08-09 02:39:00,
2013-08-08 20:47:00,62.4,57.2,30.25,South,180,0.0,0.0,83,0.00,,,0.06,meteobridge,2013-08-09 02:47:00,
2013-08-08 20:54:00,62.4,57.2,30.26,South,180,0.0,0.0,83,0.00,,,0.06,meteobridge,2013-08-09 02:54:00,
2013-08-08 21:00:00,62.4,56.8,30.26,North,0,0.0,0.0,82,0.00,,,0.06,meteobridge,2013-08-09 03:00:00,
2013-08-08 21:06:00,62.2,56.7,30.26,East,90,0.0,0.0,82,0.00,,,0.06,meteobridge,2013-08-09 03:06:00,
2013-08-08 21:13:00,62.2,56.7,30.26,East,90,0.0,0.0,82,0.00,,,0.06,meteobridge,2013-08-09 03:13:00,
2013-08-08 21:19:00,62.2,56.7,30.27,East,90,0.0,0.0,82,0.00,,,0.06,meteobridge,2013-08-09 03:19:00,
2013-08-08 21:25:00,62.1,56.5,30.27,North,0,0.0,0.0,82,0.00,,,0.06,meteobridge,2013-08-09 03:25:00,
2013-08-08 21:32:00,62.1,56.5,30.27,NE,45,0.0,0.0,82,0.00,,,0.06,meteobridge,2013-08-09 03:32:00,
2013-08-08 21:38:00,61.9,55.9,30.27,East,90,0.7,0.7,81,0.00,,,0.06,meteobridge,2013-08-09 03:38:00,
2013-08-08 21:44:00,61.9,55.9,30.27,East,90,0.0,0.0,81,0.00,,,0.06,meteobridge,2013-08-09 03:44:00,
2013-08-08 21:51:00,61.7,55.8,30.27,East,90,0.0,0.0,81,0.00,,,0.06,meteobridge,2013-08-09 03:51:00,
2013-08-08 21:57:00,61.7,55.4,30.27,East,90,0.0,0.0,80,0.00,,,0.06,meteobridge,2013-08-09 03:57:00,
2013-08-08 22:01:00,61.5,55.2,30.26,NE,45,0.0,0.7,80,0.00,,,0.06,meteobridge,2013-08-09 04:01:00,
2013-08-08 22:05:00,61.3,55.0,30.26,East,90,0.0,0.0,80,0.00,,,0.06,meteobridge,2013-08-09 04:05:00,
2013-08-08 22:08:00,61.3,55.0,30.26,East,90,0.0,0.0,80,0.00,,,0.06,meteobridge,2013-08-09 04:08:00,
2013-08-08 22:14:00,61.3,55.0,30.26,North,0,0.0,0.7,80,0.00,,,0.06,meteobridge,2013-08-09 04:14:00,
2013-08-08 22:20:00,61.2,54.7,30.26,SE,135,0.0,0.0,79,0.00,,,0.06,meteobridge,2013-08-09 04:20:00,
2013-08-08 22:22:00,61.0,54.5,30.26,East,90,0.0,0.0,79,0.00,,,0.06,meteobridge,2013-08-09 04:22:00,
2013-08-08 22:27:00,61.0,54.5,30.26,East,90,0.0,0.0,79,0.00,,,0.06,meteobridge,2013-08-09 04:27:00,
2013-08-08 22:33:00,60.8,54.3,30.26,East,90,0.0,0.0,79,0.00,,,0.06,meteobridge,2013-08-09 04:33:00,
2013-08-08 22:39:00,60.8,54.3,30.27,NE,45,2.2,2.2,79,0.00,,,0.06,meteobridge,2013-08-09 04:39:00,
2013-08-08 22:46:00,60.8,54.3,30.26,NE,45,0.0,1.6,79,0.00,,,0.06,meteobridge,2013-08-09 04:46:00,
2013-08-08 22:52:00,60.8,54.3,30.26,East,90,0.0,0.0,79,0.00,,,0.06,meteobridge,2013-08-09 04:52:00,
2013-08-08 22:58:00,60.4,54.3,30.26,East,90,0.0,0.0,80,0.00,,,0.06,meteobridge,2013-08-09 04:58:00,
2013-08-08 23:05:00,60.6,54.5,30.25,East,90,0.0,0.0,80,0.00,,,0.06,meteobridge,2013-08-09 05:05:00,
2013-08-08 23:11:00,60.4,54.3,30.25,East,90,0.0,0.0,80,0.00,,,0.06,meteobridge,2013-08-09 05:11:00,
2013-08-08 23:17:00,60.3,54.3,30.25,East,90,0.0,0.0,81,0.00,,,0.06,meteobridge,2013-08-09 05:17:00,
2013-08-08 23:24:00,60.1,54.3,30.25,East,90,0.0,0.0,81,0.00,,,0.06,meteobridge,2013-08-09 05:24:00,
2013-08-08 23:30:00,59.9,54.1,30.25,East,90,0.0,0.0,81,0.00,,,0.06,meteobridge,2013-08-09 05:30:00,
2013-08-08 23:36:00,60.1,54.3,30.24,NE,45,0.7,0.7,81,0.00,,,0.06,meteobridge,2013-08-09 05:36:00,
2013-08-08 23:43:00,59.9,54.1,30.24,NE,45,0.0,1.6,81,0.00,,,0.06,meteobridge,2013-08-09 05:43:00,
2013-08-08 23:49:00,60.1,54.0,30.24,NE,45,0.7,0.7,80,0.00,,,0.06,meteobridge,2013-08-09 05:49:00,
2013-08-08 23:55:00,60.3,54.1,30.24,East,90,0.7,0.7,80,0.00,,,0.06,meteobridge,2013-08-09 05:55:00,